Year,Month,Day,Hour,Minute,Value (Times are PST for temperature in C)
2014,07,19,00,00,17.70
2014,07,19,00,01,17.70
2014,07,19,00,02,17.70
2014,07,19,00,03,17.70
2014,07,19,00,04,17.70
2014,07,19,00,05,17.70
2014,07,19,00,06,17.70
2014,07,19,00,07,17.70
2014,07,19,00,08,17.70
2014,07,19,00,09,17.70
2014,07,19,00,10,17.70
2014,07,19,00,11,17.70
2014,07,19,00,12,17.70
2014,07,19,00,13,17.70
2014,07,19,00,14,17.70
2014,07,19,00,15,17.70
2014,07,19,00,16,17.70
2014,07,19,00,17,17.70
2014,07,19,00,18,17.70
2014,07,19,00,19,17.70
2014,07,19,00,20,17.80
2014,07,19,00,21,17.80
2014,07,19,00,22,17.80
2014,07,19,00,23,17.80
2014,07,19,00,24,17.80
2014,07,19,00,25,17.80
2014,07,19,00,26,17.80
2014,07,19,00,27,17.80
2014,07,19,00,28,17.80
2014,07,19,00,29,17.80
2014,07,19,00,30,17.80
2014,07,19,00,31,17.80
2014,07,19,00,32,17.80
2014,07,19,00,33,17.80
2014,07,19,00,34,17.80
2014,07,19,00,35,17.80
2014,07,19,00,36,17.80
2014,07,19,00,37,17.80
2014,07,19,00,38,17.80
2014,07,19,00,39,17.80
2014,07,19,00,40,17.80
2014,07,19,00,41,17.80
2014,07,19,00,42,17.80
2014,07,19,00,43,17.80
2014,07,19,00,44,17.80
2014,07,19,00,45,17.80
2014,07,19,00,46,17.80
2014,07,19,00,47,17.80
2014,07,19,00,48,17.80
2014,07,19,00,49,17.80
2014,07,19,00,50,17.80
2014,07,19,00,51,17.80
2014,07,19,00,52,17.80
2014,07,19,00,53,17.80
2014,07,19,00,54,17.80
2014,07,19,00,55,17.80
2014,07,19,00,56,17.80
2014,07,19,00,57,17.80
2014,07,19,00,58,17.80
2014,07,19,00,59,17.80
2014,07,19,01,00,17.80
2014,07,19,01,01,17.80
2014,07,19,01,02,17.80
2014,07,19,01,03,17.80
2014,07,19,01,04,17.80
2014,07,19,01,05,17.80
2014,07,19,01,06,17.80
2014,07,19,01,07,17.80
2014,07,19,01,08,17.80
2014,07,19,01,09,17.80
2014,07,19,01,10,17.80
2014,07,19,01,11,17.80
2014,07,19,01,12,17.80
2014,07,19,01,13,17.80
2014,07,19,01,14,17.80
2014,07,19,01,15,17.80
2014,07,19,01,16,17.80
2014,07,19,01,17,17.80
2014,07,19,01,18,17.70
2014,07,19,01,19,17.70
2014,07,19,01,20,17.70
2014,07,19,01,21,17.70
2014,07,19,01,22,17.70
2014,07,19,01,23,17.70
2014,07,19,01,24,17.70
2014,07,19,01,25,17.70
2014,07,19,01,26,17.70
2014,07,19,01,27,17.70
2014,07,19,01,28,17.70
2014,07,19,01,29,17.70
2014,07,19,01,30,17.70
2014,07,19,01,31,17.60
2014,07,19,01,32,17.60
2014,07,19,01,33,17.60
2014,07,19,01,34,17.60
2014,07,19,01,35,17.60
2014,07,19,01,36,17.60
2014,07,19,01,37,17.60
2014,07,19,01,38,17.60
2014,07,19,01,39,17.60
2014,07,19,01,40,17.60
2014,07,19,01,41,17.60
2014,07,19,01,42,17.60
2014,07,19,01,43,17.60
2014,07,19,01,44,17.60
2014,07,19,01,45,17.60
2014,07,19,01,46,17.60
2014,07,19,01,47,17.60
2014,07,19,01,48,17.60
2014,07,19,01,49,17.60
2014,07,19,01,50,17.60
2014,07,19,01,51,17.60
2014,07,19,01,52,17.60
2014,07,19,01,53,17.60
2014,07,19,01,54,17.60
2014,07,19,01,55,17.60
2014,07,19,01,56,17.60
2014,07,19,01,57,17.60
2014,07,19,01,58,17.70
2014,07,19,01,59,17.70
2014,07,19,02,00,17.70
2014,07,19,02,01,17.70
2014,07,19,02,02,17.70
2014,07,19,02,03,17.70
2014,07,19,02,04,17.70
2014,07,19,02,05,17.70
2014,07,19,02,06,17.70
2014,07,19,02,07,17.70
2014,07,19,02,08,17.70
2014,07,19,02,09,17.70
2014,07,19,02,10,17.70
2014,07,19,02,11,17.70
2014,07,19,02,12,17.70
2014,07,19,02,13,17.70
2014,07,19,02,14,17.70
2014,07,19,02,15,17.70
2014,07,19,02,16,17.70
2014,07,19,02,17,17.70
2014,07,19,02,18,17.70
2014,07,19,02,19,17.70
2014,07,19,02,20,17.70
2014,07,19,02,21,17.70
2014,07,19,02,22,17.70
2014,07,19,02,23,17.70
2014,07,19,02,24,17.70
2014,07,19,02,25,17.70
2014,07,19,02,26,17.70
2014,07,19,02,27,17.70
2014,07,19,02,28,17.80
2014,07,19,02,29,17.80
2014,07,19,02,30,17.80
2014,07,19,02,31,17.80
2014,07,19,02,32,17.80
2014,07,19,02,33,17.80
2014,07,19,02,34,17.80
2014,07,19,02,35,17.80
2014,07,19,02,36,17.80
2014,07,19,02,37,17.80
2014,07,19,02,38,17.80
2014,07,19,02,39,17.80
2014,07,19,02,40,17.80
2014,07,19,02,41,17.80
2014,07,19,02,42,17.80
2014,07,19,02,43,17.80
2014,07,19,02,44,17.80
2014,07,19,02,45,17.80
2014,07,19,02,46,17.80
2014,07,19,02,47,17.80
2014,07,19,02,48,17.80
2014,07,19,02,49,17.80
2014,07,19,02,50,17.80
2014,07,19,02,51,17.80
2014,07,19,02,52,17.80
2014,07,19,02,53,17.80
2014,07,19,02,54,17.80
2014,07,19,02,55,17.80
2014,07,19,02,56,17.80
2014,07,19,02,57,17.80
2014,07,19,02,58,17.80
2014,07,19,02,59,17.80
2014,07,19,03,00,17.80
2014,07,19,03,01,17.80
2014,07,19,03,02,17.80
2014,07,19,03,06,17.80
2014,07,19,03,07,17.80
2014,07,19,03,08,17.80
2014,07,19,03,09,17.80
2014,07,19,03,10,17.70
2014,07,19,03,11,17.70
2014,07,19,03,12,17.70
2014,07,19,03,13,17.70
2014,07,19,03,14,17.70
2014,07,19,03,15,17.80
2014,07,19,03,16,17.70
2014,07,19,03,17,17.80
2014,07,19,03,18,17.80
2014,07,19,03,19,17.70
2014,07,19,03,20,17.80
2014,07,19,03,21,17.80
2014,07,19,03,22,17.70
2014,07,19,03,23,17.70
2014,07,19,03,24,17.80
2014,07,19,03,25,17.80
2014,07,19,03,26,17.80
2014,07,19,03,27,17.80
2014,07,19,03,28,17.80
2014,07,19,03,29,17.80
2014,07,19,03,30,17.80
2014,07,19,03,31,17.80
2014,07,19,03,32,17.80
2014,07,19,03,33,17.80
2014,07,19,03,34,17.80
2014,07,19,03,35,17.90
2014,07,19,03,36,17.90
2014,07,19,03,37,17.90
2014,07,19,03,38,17.90
2014,07,19,03,39,17.90
2014,07,19,03,40,17.90
2014,07,19,03,41,17.90
2014,07,19,03,42,17.90
2014,07,19,03,43,17.90
2014,07,19,03,44,17.90
2014,07,19,03,45,17.90
2014,07,19,03,46,17.90
2014,07,19,03,47,17.90
2014,07,19,03,48,17.90
2014,07,19,03,49,17.90
2014,07,19,03,50,17.90
2014,07,19,03,51,18.00
2014,07,19,03,52,18.00
2014,07,19,03,53,18.00
2014,07,19,03,54,18.00
2014,07,19,03,55,18.00
2014,07,19,03,56,18.00
2014,07,19,03,57,18.00
2014,07,19,03,58,18.00
2014,07,19,03,59,18.00
2014,07,19,04,00,18.00
2014,07,19,04,01,18.00
2014,07,19,04,02,18.00
2014,07,19,04,03,18.00
2014,07,19,04,04,18.00
2014,07,19,04,05,18.00
2014,07,19,04,06,18.00
2014,07,19,04,07,18.00
2014,07,19,04,08,18.00
2014,07,19,04,09,18.00
2014,07,19,04,10,18.00
2014,07,19,04,11,18.00
2014,07,19,04,12,17.90
2014,07,19,04,13,17.90
2014,07,19,04,14,17.90
2014,07,19,04,15,17.90
2014,07,19,04,16,17.90
2014,07,19,04,17,17.90
2014,07,19,04,18,17.90
2014,07,19,04,19,17.90
2014,07,19,04,20,17.90
2014,07,19,04,21,17.90
2014,07,19,04,22,17.90
2014,07,19,04,23,17.80
2014,07,19,04,24,17.80
2014,07,19,04,25,17.80
2014,07,19,04,26,17.80
2014,07,19,04,27,17.80
2014,07,19,04,28,17.80
2014,07,19,04,29,17.80
2014,07,19,04,30,17.80
2014,07,19,04,31,17.80
2014,07,19,04,32,17.80
2014,07,19,04,33,17.80
2014,07,19,04,34,17.70
2014,07,19,04,35,17.70
2014,07,19,04,36,17.70
2014,07,19,04,37,17.70
2014,07,19,04,38,17.70
2014,07,19,04,39,17.70
2014,07,19,04,40,17.70
2014,07,19,04,41,17.70
2014,07,19,04,42,17.70
2014,07,19,04,43,17.70
2014,07,19,04,44,17.70
2014,07,19,04,45,17.70
2014,07,19,04,46,17.70
2014,07,19,04,47,17.70
2014,07,19,04,48,17.70
2014,07,19,04,49,17.70
2014,07,19,04,50,17.70
2014,07,19,04,51,17.70
2014,07,19,04,52,17.70
2014,07,19,04,53,17.70
2014,07,19,04,54,17.70
2014,07,19,04,55,17.70
2014,07,19,04,56,17.70
2014,07,19,04,57,17.60
2014,07,19,04,58,17.60
2014,07,19,04,59,17.60
2014,07,19,05,00,17.60
2014,07,19,05,01,17.60
2014,07,19,05,02,17.60
2014,07,19,05,03,17.60
2014,07,19,05,04,17.60
2014,07,19,05,05,17.60
2014,07,19,05,06,17.60
2014,07,19,05,07,17.50
2014,07,19,05,08,17.50
2014,07,19,05,09,17.50
2014,07,19,05,10,17.50
2014,07,19,05,11,17.50
2014,07,19,05,12,17.50
2014,07,19,05,13,17.50
2014,07,19,05,14,17.50
2014,07,19,05,15,17.50
2014,07,19,05,16,17.50
2014,07,19,05,17,17.50
2014,07,19,05,18,17.50
2014,07,19,05,19,17.50
2014,07,19,05,20,17.50
2014,07,19,05,21,17.50
2014,07,19,05,22,17.50
2014,07,19,05,23,17.50
2014,07,19,05,24,17.50
2014,07,19,05,25,17.40
2014,07,19,05,26,17.40
2014,07,19,05,27,17.40
2014,07,19,05,28,17.40
2014,07,19,05,29,17.40
2014,07,19,05,30,17.40
2014,07,19,05,31,17.40
2014,07,19,05,32,17.50
2014,07,19,05,33,17.50
2014,07,19,05,34,17.50
2014,07,19,05,35,17.50
2014,07,19,05,36,17.50
2014,07,19,05,37,17.50
2014,07,19,05,38,17.50
2014,07,19,05,39,17.50
2014,07,19,05,40,17.50
2014,07,19,05,41,17.50
2014,07,19,05,42,17.40
2014,07,19,05,43,17.50
2014,07,19,05,44,17.50
2014,07,19,05,45,17.50
2014,07,19,05,46,17.50
2014,07,19,05,47,17.50
2014,07,19,05,48,17.50
2014,07,19,05,49,17.50
2014,07,19,05,50,17.50
2014,07,19,05,51,17.50
2014,07,19,05,52,17.50
2014,07,19,05,53,17.60
2014,07,19,05,54,17.60
2014,07,19,05,55,17.60
2014,07,19,05,56,17.60
2014,07,19,05,57,17.60
2014,07,19,05,58,17.60
2014,07,19,05,59,17.60
2014,07,19,06,00,17.60
2014,07,19,06,01,17.60
2014,07,19,06,02,17.60
2014,07,19,06,03,17.60
2014,07,19,06,04,17.60
2014,07,19,06,05,17.60
2014,07,19,06,06,17.60
2014,07,19,06,07,17.60
2014,07,19,06,08,17.60
2014,07,19,06,09,17.60
2014,07,19,06,10,17.60
2014,07,19,06,11,17.60
2014,07,19,06,12,17.60
2014,07,19,06,13,17.60
2014,07,19,06,14,17.60
2014,07,19,06,15,17.70
2014,07,19,06,16,17.70
2014,07,19,06,17,17.70
2014,07,19,06,18,17.70
2014,07,19,06,19,17.70
2014,07,19,06,20,17.70
2014,07,19,06,21,17.70
2014,07,19,06,22,17.70
2014,07,19,06,23,17.70
2014,07,19,06,24,17.70
2014,07,19,06,25,17.70
2014,07,19,06,26,17.70
2014,07,19,06,27,17.70
2014,07,19,06,28,17.70
2014,07,19,06,29,17.70
2014,07,19,06,30,17.70
2014,07,19,06,31,17.70
2014,07,19,06,32,17.70
2014,07,19,06,33,17.70
2014,07,19,06,34,17.70
2014,07,19,06,35,17.70
2014,07,19,06,36,17.80
2014,07,19,06,37,17.80
2014,07,19,06,38,17.80
2014,07,19,06,39,17.80
2014,07,19,06,40,17.80
2014,07,19,06,41,17.80
2014,07,19,06,42,17.80
2014,07,19,06,43,17.90
2014,07,19,06,44,17.90
2014,07,19,06,45,17.90
2014,07,19,06,46,17.90
2014,07,19,06,47,17.90
2014,07,19,06,48,17.90
2014,07,19,06,49,18.00
2014,07,19,06,50,18.00
2014,07,19,06,51,18.00
2014,07,19,06,52,18.10
2014,07,19,06,53,18.10
2014,07,19,06,54,18.10
2014,07,19,06,55,18.10
2014,07,19,06,56,18.20
2014,07,19,06,57,18.20
2014,07,19,06,58,18.20
2014,07,19,06,59,18.20
2014,07,19,07,00,18.20
2014,07,19,07,01,18.30
2014,07,19,07,02,18.30
2014,07,19,07,03,18.30
2014,07,19,07,04,18.30
2014,07,19,07,05,18.30
2014,07,19,07,06,18.40
2014,07,19,07,07,18.40
2014,07,19,07,08,18.40
2014,07,19,07,09,18.50
2014,07,19,07,10,18.50
2014,07,19,07,11,18.50
2014,07,19,07,12,18.50
2014,07,19,07,13,18.60
2014,07,19,07,14,18.60
2014,07,19,07,15,18.60
2014,07,19,07,16,18.60
2014,07,19,07,17,18.70
2014,07,19,07,18,18.70
2014,07,19,07,19,18.70
2014,07,19,07,20,18.70
2014,07,19,07,21,18.70
2014,07,19,07,22,18.70
2014,07,19,07,23,18.70
2014,07,19,07,24,18.70
2014,07,19,07,25,18.70
2014,07,19,07,26,18.70
2014,07,19,07,27,18.70
2014,07,19,07,28,18.70
2014,07,19,07,29,18.80
2014,07,19,07,30,18.80
2014,07,19,07,31,18.80
2014,07,19,07,32,18.80
2014,07,19,07,33,18.80
2014,07,19,07,34,18.80
2014,07,19,07,35,18.80
2014,07,19,07,36,18.90
2014,07,19,07,37,18.90
2014,07,19,07,38,18.90
2014,07,19,07,39,18.90
2014,07,19,07,40,18.90
2014,07,19,07,41,19.00
2014,07,19,07,42,19.00
2014,07,19,07,43,19.00
2014,07,19,07,44,19.00
2014,07,19,07,45,19.00
2014,07,19,07,46,19.10
2014,07,19,07,47,19.10
2014,07,19,07,48,19.10
2014,07,19,07,49,19.10
2014,07,19,07,50,19.10
2014,07,19,07,51,19.10
2014,07,19,07,52,19.10
2014,07,19,07,53,19.10
2014,07,19,07,54,19.10
2014,07,19,07,55,19.10
2014,07,19,07,56,19.10
2014,07,19,07,57,19.20
2014,07,19,07,58,19.20
2014,07,19,07,59,19.20
2014,07,19,08,00,19.20
2014,07,19,08,01,19.30
2014,07,19,08,02,19.30
2014,07,19,08,03,19.40
2014,07,19,08,04,19.40
2014,07,19,08,05,19.50
2014,07,19,08,06,19.50
2014,07,19,08,07,19.60
2014,07,19,08,08,19.70
2014,07,19,08,09,19.70
2014,07,19,08,10,19.80
2014,07,19,08,11,19.80
2014,07,19,08,12,19.90
2014,07,19,08,13,20.00
2014,07,19,08,14,20.00
2014,07,19,08,15,20.10
2014,07,19,08,16,20.10
2014,07,19,08,17,20.20
2014,07,19,08,18,20.20
2014,07,19,08,19,20.20
2014,07,19,08,20,20.30
2014,07,19,08,21,20.30
2014,07,19,08,22,20.30
2014,07,19,08,23,20.30
2014,07,19,08,24,20.30
2014,07,19,08,25,20.30
2014,07,19,08,26,20.30
2014,07,19,08,27,20.40
2014,07,19,08,28,20.40
2014,07,19,08,29,20.40
2014,07,19,08,30,20.40
2014,07,19,08,31,20.40
2014,07,19,08,32,20.50
2014,07,19,08,33,20.50
2014,07,19,08,34,20.50
2014,07,19,08,35,20.60
2014,07,19,08,36,20.60
2014,07,19,08,37,20.60
2014,07,19,08,38,20.70
2014,07,19,08,39,20.70
2014,07,19,08,40,20.70
2014,07,19,08,41,20.70
2014,07,19,08,42,20.80
2014,07,19,08,43,20.80
2014,07,19,08,44,20.80
2014,07,19,08,45,20.80
2014,07,19,08,46,20.90
2014,07,19,08,47,20.90
2014,07,19,08,48,20.90
2014,07,19,08,49,21.00
2014,07,19,08,50,21.00
2014,07,19,08,51,21.10
2014,07,19,08,52,21.10
2014,07,19,08,53,21.10
2014,07,19,08,54,21.10
2014,07,19,08,55,21.20
2014,07,19,08,56,21.20
2014,07,19,08,57,21.20
2014,07,19,08,58,21.20
2014,07,19,08,59,21.20
2014,07,19,09,00,21.20
2014,07,19,09,01,21.20
2014,07,19,09,02,21.20
2014,07,19,09,03,21.20
2014,07,19,09,04,21.10
2014,07,19,09,05,21.10
2014,07,19,09,06,21.10
2014,07,19,09,07,21.00
2014,07,19,09,08,21.00
2014,07,19,09,09,20.90
2014,07,19,09,10,20.90
2014,07,19,09,11,20.90
2014,07,19,09,12,20.80
2014,07,19,09,13,20.80
2014,07,19,09,14,20.80
2014,07,19,09,15,20.80
2014,07,19,09,16,20.80
2014,07,19,09,17,20.80
2014,07,19,09,18,20.80
2014,07,19,09,19,20.80
2014,07,19,09,20,20.80
2014,07,19,09,21,20.90
2014,07,19,09,22,20.90
2014,07,19,09,23,20.90
2014,07,19,09,24,20.90
2014,07,19,09,25,20.90
2014,07,19,09,26,21.00
2014,07,19,09,27,21.00
2014,07,19,09,28,21.10
2014,07,19,09,29,21.10
2014,07,19,09,30,21.10
2014,07,19,09,31,21.10
2014,07,19,09,32,21.10
2014,07,19,09,33,21.10
2014,07,19,09,34,21.10
2014,07,19,09,35,21.10
2014,07,19,09,36,21.00
2014,07,19,09,37,20.90
2014,07,19,09,38,20.90
2014,07,19,09,39,20.80
2014,07,19,09,40,20.80
2014,07,19,09,41,20.80
2014,07,19,09,42,20.80
2014,07,19,09,43,20.80
2014,07,19,09,44,20.90
2014,07,19,09,45,20.90
2014,07,19,09,46,20.90
2014,07,19,09,47,20.90
2014,07,19,09,48,21.00
2014,07,19,09,49,21.10
2014,07,19,09,50,21.20
2014,07,19,09,51,21.30
2014,07,19,09,52,21.30
2014,07,19,09,53,21.40
2014,07,19,09,54,21.40
2014,07,19,09,55,21.40
2014,07,19,09,56,21.40
2014,07,19,09,57,21.50
2014,07,19,09,58,21.50
2014,07,19,09,59,21.60
2014,07,19,10,00,21.60
2014,07,19,10,01,21.60
2014,07,19,10,02,21.50
2014,07,19,10,03,21.50
2014,07,19,10,04,21.50
2014,07,19,10,05,21.50
2014,07,19,10,06,21.50
2014,07,19,10,07,21.40
2014,07,19,10,08,21.40
2014,07,19,10,09,21.30
2014,07,19,10,10,21.30
2014,07,19,10,11,21.20
2014,07,19,10,12,21.20
2014,07,19,10,13,21.20
2014,07,19,10,14,21.20
2014,07,19,10,15,21.20
2014,07,19,10,16,21.20
2014,07,19,10,17,21.20
2014,07,19,10,18,21.20
2014,07,19,10,19,21.20
2014,07,19,10,20,21.20
2014,07,19,10,21,21.20
2014,07,19,10,22,21.20
2014,07,19,10,23,21.10
2014,07,19,10,24,21.00
2014,07,19,10,25,21.00
2014,07,19,10,26,20.90
2014,07,19,10,27,20.90
2014,07,19,10,28,21.00
2014,07,19,10,29,21.00
2014,07,19,10,30,21.10
2014,07,19,10,31,21.20
2014,07,19,10,32,21.30
2014,07,19,10,33,21.40
2014,07,19,10,34,21.40
2014,07,19,10,35,21.50
2014,07,19,10,36,21.50
2014,07,19,10,37,21.50
2014,07,19,10,38,21.50
2014,07,19,10,39,21.50
2014,07,19,10,40,21.60
2014,07,19,10,41,21.60
2014,07,19,10,42,21.60
2014,07,19,10,43,21.60
2014,07,19,10,44,21.60
2014,07,19,10,45,21.70
2014,07,19,10,46,21.70
2014,07,19,10,47,21.80
2014,07,19,10,48,21.80
2014,07,19,10,49,21.80
2014,07,19,10,50,21.80
2014,07,19,10,51,21.80
2014,07,19,10,52,21.80
2014,07,19,10,53,21.80
2014,07,19,10,54,21.80
2014,07,19,10,55,21.80
2014,07,19,10,56,21.80
2014,07,19,10,57,21.80
2014,07,19,10,58,21.80
2014,07,19,10,59,21.80
2014,07,19,11,00,21.80
2014,07,19,11,01,21.80
2014,07,19,11,02,21.80
2014,07,19,11,03,21.80
2014,07,19,11,04,21.80
2014,07,19,11,05,21.90
2014,07,19,11,06,21.90
2014,07,19,11,07,22.00
2014,07,19,11,08,22.10
2014,07,19,11,09,22.10
2014,07,19,11,10,22.10
2014,07,19,11,11,22.10
2014,07,19,11,12,22.20
2014,07,19,11,13,22.20
2014,07,19,11,14,22.20
2014,07,19,11,15,22.30
2014,07,19,11,16,22.30
2014,07,19,11,17,22.30
2014,07,19,11,18,22.20
2014,07,19,11,19,22.30
2014,07,19,11,20,22.30
2014,07,19,11,21,22.30
2014,07,19,11,22,22.30
2014,07,19,11,23,22.40
2014,07,19,11,24,22.50
2014,07,19,11,25,22.50
2014,07,19,11,26,22.30
2014,07,19,11,27,22.10
2014,07,19,11,28,21.90
2014,07,19,11,29,21.70
2014,07,19,11,30,21.50
2014,07,19,11,31,21.30
2014,07,19,11,32,21.10
2014,07,19,11,33,20.90
2014,07,19,11,34,20.80
2014,07,19,11,35,20.80
2014,07,19,11,36,20.80
2014,07,19,11,37,20.80
2014,07,19,11,38,20.70
2014,07,19,11,39,20.70
2014,07,19,11,40,20.70
2014,07,19,11,41,20.70
2014,07,19,11,42,20.60
2014,07,19,11,43,20.60
2014,07,19,11,44,20.60
2014,07,19,11,45,20.60
2014,07,19,11,46,20.70
2014,07,19,11,47,20.70
2014,07,19,11,48,20.70
2014,07,19,11,49,20.70
2014,07,19,11,50,20.70
2014,07,19,11,51,20.70
2014,07,19,11,52,20.70
2014,07,19,11,53,20.70
2014,07,19,11,54,20.60
2014,07,19,11,55,20.50
2014,07,19,11,56,20.40
2014,07,19,11,57,20.40
2014,07,19,11,58,20.30
2014,07,19,11,59,20.30
2014,07,19,12,00,20.30
2014,07,19,12,01,20.20
2014,07,19,12,02,20.10
2014,07,19,12,03,20.00
2014,07,19,12,04,20.00
2014,07,19,12,05,19.90
2014,07,19,12,06,19.90
2014,07,19,12,07,19.80
2014,07,19,12,08,19.80
2014,07,19,12,09,19.90
2014,07,19,12,10,20.00
2014,07,19,12,11,20.00
2014,07,19,12,12,20.00
2014,07,19,12,13,20.00
2014,07,19,12,14,20.00
2014,07,19,12,15,20.00
2014,07,19,12,16,20.00
2014,07,19,12,17,19.90
2014,07,19,12,18,19.90
2014,07,19,12,19,19.80
2014,07,19,12,20,19.80
2014,07,19,12,21,19.70
2014,07,19,12,22,19.70
2014,07,19,12,23,19.60
2014,07,19,12,24,19.60
2014,07,19,12,25,19.60
2014,07,19,12,26,19.60
2014,07,19,12,27,19.60
2014,07,19,12,28,19.60
2014,07,19,12,29,19.60
2014,07,19,12,30,19.70
2014,07,19,12,31,19.70
2014,07,19,12,32,19.70
2014,07,19,12,33,19.70
2014,07,19,12,34,19.70
2014,07,19,12,35,19.70
2014,07,19,12,36,19.60
2014,07,19,12,37,19.60
2014,07,19,12,38,19.60
2014,07,19,12,39,19.60
2014,07,19,12,40,19.60
2014,07,19,12,41,19.60
2014,07,19,12,42,19.60
2014,07,19,12,43,19.60
2014,07,19,12,44,19.70
2014,07,19,12,45,19.70
2014,07,19,12,46,19.80
2014,07,19,12,47,20.00
2014,07,19,12,48,20.00
2014,07,19,12,49,20.00
2014,07,19,12,50,20.00
2014,07,19,12,51,19.90
2014,07,19,12,52,19.90
2014,07,19,12,53,19.90
2014,07,19,12,54,19.80
2014,07,19,12,55,19.80
2014,07,19,12,56,19.80
2014,07,19,12,57,19.80
2014,07,19,12,58,19.70
2014,07,19,12,59,19.70
2014,07,19,13,00,19.70
2014,07,19,13,01,19.70
2014,07,19,13,02,19.70
2014,07,19,13,03,19.60
2014,07,19,13,04,19.70
2014,07,19,13,05,19.70
2014,07,19,13,06,19.70
2014,07,19,13,07,19.70
2014,07,19,13,08,19.70
2014,07,19,13,09,19.70
2014,07,19,13,10,19.80
2014,07,19,13,11,19.80
2014,07,19,13,12,19.90
2014,07,19,13,13,20.00
2014,07,19,13,14,20.10
2014,07,19,13,15,20.10
2014,07,19,13,16,20.10
2014,07,19,13,17,20.10
2014,07,19,13,18,20.10
2014,07,19,13,19,20.00
2014,07,19,13,20,19.90
2014,07,19,13,21,19.90
2014,07,19,13,22,19.80
2014,07,19,13,23,19.80
2014,07,19,13,24,19.70
2014,07,19,13,25,19.70
2014,07,19,13,26,19.70
2014,07,19,13,27,19.70
2014,07,19,13,28,19.80
2014,07,19,13,29,19.80
2014,07,19,13,30,19.90
2014,07,19,13,31,20.00
2014,07,19,13,32,20.10
2014,07,19,13,33,20.20
2014,07,19,13,34,20.30
2014,07,19,13,35,20.40
2014,07,19,13,36,20.60
2014,07,19,13,37,20.70
2014,07,19,13,38,20.80
2014,07,19,13,39,21.00
2014,07,19,13,40,21.10
2014,07,19,13,41,21.10
2014,07,19,13,42,21.20
2014,07,19,13,43,21.30
2014,07,19,13,44,21.30
2014,07,19,13,45,21.40
2014,07,19,13,46,21.40
2014,07,19,13,47,21.50
2014,07,19,13,48,21.50
2014,07,19,13,49,21.60
2014,07,19,13,50,21.60
2014,07,19,13,51,21.60
2014,07,19,13,52,21.60
2014,07,19,13,53,21.50
2014,07,19,13,54,21.50
2014,07,19,13,55,21.50
2014,07,19,13,56,21.50
2014,07,19,13,57,21.50
2014,07,19,13,58,21.60
2014,07,19,13,59,21.70
2014,07,19,14,00,21.80
2014,07,19,14,01,21.80
2014,07,19,14,02,21.90
2014,07,19,14,03,22.00
2014,07,19,14,04,22.20
2014,07,19,14,05,22.20
2014,07,19,14,06,22.30
2014,07,19,14,07,22.40
2014,07,19,14,08,22.50
2014,07,19,14,09,22.50
2014,07,19,14,10,22.60
2014,07,19,14,11,22.70
2014,07,19,14,12,22.70
2014,07,19,14,13,22.70
2014,07,19,14,14,22.80
2014,07,19,14,15,22.70
2014,07,19,14,16,22.70
2014,07,19,14,17,22.70
2014,07,19,14,18,22.60
2014,07,19,14,19,22.60
2014,07,19,14,20,22.50
2014,07,19,14,21,22.40
2014,07,19,14,22,22.30
2014,07,19,14,23,22.20
2014,07,19,14,24,22.10
2014,07,19,14,25,22.00
2014,07,19,14,26,21.90
2014,07,19,14,27,21.80
2014,07,19,14,28,21.80
2014,07,19,14,29,21.80
2014,07,19,14,30,21.80
2014,07,19,14,31,21.70
2014,07,19,14,32,21.70
2014,07,19,14,33,21.70
2014,07,19,14,34,21.70
2014,07,19,14,35,21.70
2014,07,19,14,36,21.70
2014,07,19,14,37,21.70
2014,07,19,14,38,21.80
2014,07,19,14,39,21.90
2014,07,19,14,40,21.90
2014,07,19,14,41,22.00
2014,07,19,14,42,22.10
2014,07,19,14,43,22.20
2014,07,19,14,44,22.20
2014,07,19,14,45,22.20
2014,07,19,14,46,22.30
2014,07,19,14,47,22.30
2014,07,19,14,48,22.30
2014,07,19,14,49,22.30
2014,07,19,14,50,22.30
2014,07,19,14,51,22.20
2014,07,19,14,52,22.10
2014,07,19,14,53,22.00
2014,07,19,14,54,22.00
2014,07,19,14,55,22.00
2014,07,19,14,56,22.00
2014,07,19,14,57,22.00
2014,07,19,14,58,22.00
2014,07,19,14,59,22.10
2014,07,19,15,00,22.10
2014,07,19,15,01,22.20
2014,07,19,15,02,22.20
2014,07,19,15,03,22.20
2014,07,19,15,04,22.20
2014,07,19,15,05,22.10
2014,07,19,15,06,22.00
2014,07,19,15,07,21.90
2014,07,19,15,08,21.80
2014,07,19,15,09,21.80
2014,07,19,15,10,21.70
2014,07,19,15,11,21.70
2014,07,19,15,12,21.60
2014,07,19,15,13,21.60
2014,07,19,15,14,21.60
2014,07,19,15,15,21.60
2014,07,19,15,16,21.60
2014,07,19,15,17,21.60
2014,07,19,15,18,21.50
2014,07,19,15,19,21.50
2014,07,19,15,20,21.40
2014,07,19,15,21,21.30
2014,07,19,15,22,21.10
2014,07,19,15,23,20.90
2014,07,19,15,24,20.80
2014,07,19,15,25,20.70
2014,07,19,15,26,20.50
2014,07,19,15,27,20.50
2014,07,19,15,28,20.40
2014,07,19,15,29,20.40
2014,07,19,15,30,20.40
2014,07,19,15,31,20.40
2014,07,19,15,32,20.50
2014,07,19,15,33,20.50
2014,07,19,15,34,20.60
2014,07,19,15,35,20.70
2014,07,19,15,36,20.80
2014,07,19,15,37,20.90
2014,07,19,15,38,21.00
2014,07,19,15,39,21.10
2014,07,19,15,40,21.10
2014,07,19,15,41,21.00
2014,07,19,15,42,20.90
2014,07,19,15,43,20.80
2014,07,19,15,44,20.70
2014,07,19,15,45,20.70
2014,07,19,15,46,20.70
2014,07,19,15,47,20.70
2014,07,19,15,48,20.70
2014,07,19,15,49,20.70
2014,07,19,15,50,20.80
2014,07,19,15,51,20.80
2014,07,19,15,52,20.80
2014,07,19,15,53,20.90
2014,07,19,15,54,20.90
2014,07,19,15,55,20.90
2014,07,19,15,56,21.00
2014,07,19,15,57,21.00
2014,07,19,15,58,21.00
2014,07,19,15,59,21.00
2014,07,19,16,00,21.00
2014,07,19,16,01,21.00
2014,07,19,16,02,21.10
2014,07,19,16,03,21.20
2014,07,19,16,04,21.30
2014,07,19,16,05,21.30
2014,07,19,16,06,21.30
2014,07,19,16,07,21.30
2014,07,19,16,08,21.40
2014,07,19,16,09,21.40
2014,07,19,16,10,21.40
2014,07,19,16,11,21.40
2014,07,19,16,12,21.40
2014,07,19,16,13,21.40
2014,07,19,16,14,21.40
2014,07,19,16,15,21.40
2014,07,19,16,16,21.50
2014,07,19,16,17,21.50
2014,07,19,16,18,21.50
2014,07,19,16,19,21.40
2014,07,19,16,20,21.30
2014,07,19,16,21,21.10
2014,07,19,16,22,21.10
2014,07,19,16,23,21.00
2014,07,19,16,24,20.90
2014,07,19,16,25,20.80
2014,07,19,16,26,20.60
2014,07,19,16,27,20.40
2014,07,19,16,28,20.30
2014,07,19,16,29,20.20
2014,07,19,16,30,20.20
2014,07,19,16,31,20.20
2014,07,19,16,32,20.20
2014,07,19,16,33,20.10
2014,07,19,16,34,20.10
2014,07,19,16,35,20.10
2014,07,19,16,36,20.10
2014,07,19,16,37,20.10
2014,07,19,16,38,20.10
2014,07,19,16,39,20.10
2014,07,19,16,40,20.10
2014,07,19,16,41,20.20
2014,07,19,16,42,20.20
2014,07,19,16,43,20.20
2014,07,19,16,44,20.20
2014,07,19,16,45,20.30
2014,07,19,16,46,20.40
2014,07,19,16,47,20.40
2014,07,19,16,48,20.40
2014,07,19,16,49,20.40
2014,07,19,16,50,20.40
2014,07,19,16,51,20.40
2014,07,19,16,52,20.40
2014,07,19,16,53,20.40
2014,07,19,16,54,20.50
2014,07,19,16,55,20.60
2014,07,19,16,56,20.60
2014,07,19,16,57,20.60
2014,07,19,16,58,20.70
2014,07,19,16,59,20.80
2014,07,19,17,00,20.90
2014,07,19,17,01,21.00
2014,07,19,17,02,21.00
2014,07,19,17,03,21.00
2014,07,19,17,04,20.90
2014,07,19,17,05,20.90
2014,07,19,17,06,20.90
2014,07,19,17,07,20.90
2014,07,19,17,08,21.00
2014,07,19,17,09,21.00
2014,07,19,17,10,21.10
2014,07,19,17,11,21.10
2014,07,19,17,12,21.10
2014,07,19,17,13,21.20
2014,07,19,17,14,21.20
2014,07,19,17,15,21.30
2014,07,19,17,16,21.40
2014,07,19,17,17,21.50
2014,07,19,17,18,21.60
2014,07,19,17,19,21.70
2014,07,19,17,20,21.70
2014,07,19,17,21,21.70
2014,07,19,17,22,21.80